Home   Weather   Reutlingen   Past weeks
Flag for Germany

Past Weather in Reutlingen, Baden-Württemberg, Germany — Yesterday and Last 2 Weeks

Now
68 °F

Partly sunny.


Feels Like: 68 °F
Forecast: 81 / 61 °F
Wind: 2 mph from North

Location: Stuttgart-Echterdingen

Current Time: Aug 24, 2019 at 11:06:57 am

Latest Report: Aug 24, 2019 at 10:20 am


Visibility: N/A

Pressure: 30.18 "Hg

Humidity: 69%

Dew Point: 57 °F

Location of ReutlingenLocation

Past Weather in Reutlingen — Graph

°F

Reutlingen Temperature Yesterday

Maximum temperature yesterday: 77 °F (at 2:50 pm)
Minimum temperature yesterday: 50 °F (at 6:50 am)
Average temperature yesterday: 65 °F

High & Low Weather Summary for the Past Weeks

 TemperatureHumidityPressure
High91 °F (Aug 9, 3:50 pm)100% (Aug 10, 2:50 am)30.39 "Hg (Aug 10, 2:50 am)
Low48 °F (Aug 14, 4:20 am)29% (Aug 18, 3:20 pm)29.80 "Hg (Aug 9, 6:20 pm)
Average65 °F72%30.09 "Hg
* Reported Aug 9 9:20 am — Aug 24 9:50 am, Reutlingen. Weather by CustomWeather, © 2019

Note: Actual official high and low records may vary slightly from our data, if they occured in-between our weather recording intervals... More about our weather records

Advertising

Reutlingen Weather History for the Previous 24 Hours

Scroll right to see more
 ConditionsComfort  
Time TempWeatherWind HumidityBarometerVisibility
9:50 am
Sat, Aug 24
66 °FPartly sunny.2 mph78%30.18 "HgN/A
9:20 am64 °FPartly sunny.2 mph83%30.18 "HgN/A
8:50 am63 °FPartly sunny.2 mph83%30.18 "HgN/A
8:20 am63 °FPartly sunny.1 mph83%30.18 "HgN/A
7:50 am61 °FPartly sunny.1 mph88%30.15 "HgN/A
7:20 am59 °FPartly sunny.1 mph94%30.18 "HgN/A
6:50 am59 °FPartly sunny.1 mph88%30.18 "HgN/A
6:20 am59 °FPassing clouds.1 mph88%30.18 "HgN/A
5:50 am59 °FPassing clouds.1 mph88%30.18 "HgN/A
4:50 am57 °FPassing clouds.2 mph88%30.18 "HgN/A
4:20 am57 °FPassing clouds.1 mph88%30.18 "HgN/A
3:50 am57 °FClear.5 mph88%30.18 "Hg10 mi
3:20 am55 °FClear.3 mph88%30.18 "Hg10 mi
2:50 am57 °FClear.1 mph88%30.18 "Hg10 mi
2:20 am57 °FClear.1 mph94%30.18 "Hg10 mi
1:50 am59 °FClear.2 mph88%30.18 "Hg10 mi
1:20 am59 °FClear.2 mph88%30.18 "Hg10 mi
12:50 am59 °FClear.6 mph88%30.21 "Hg10 mi
12:20 am61 °FClear.2 mph83%30.21 "Hg10 mi
11:50 pm
Fri, Aug 23
61 °FClear.1 mph83%30.21 "Hg10 mi
11:20 pm63 °FClear.1 mph77%30.21 "Hg10 mi
10:50 pm64 °FClear.2 mph73%30.21 "Hg10 mi
10:20 pm66 °FClear.1 mph68%30.21 "Hg10 mi
9:50 pm66 °FClear.1 mph68%30.21 "Hg10 mi
9:20 pm68 °FClear.1 mph64%30.21 "Hg10 mi
8:50 pm68 °FPassing clouds.3 mph69%30.21 "HgN/A
8:20 pm72 °FPassing clouds.3 mph61%30.21 "HgN/A
7:50 pm73 °FScattered clouds.6 mph57%30.21 "HgN/A
7:20 pm75 °FPassing clouds.8 mph57%30.21 "HgN/A
6:50 pm77 °FPassing clouds.8 mph47%30.21 "HgN/A
6:20 pm75 °FPassing clouds.6 mph54%30.21 "HgN/A
5:50 pm77 °FPassing clouds.7 mph47%30.21 "HgN/A
5:20 pm77 °FPassing clouds.7 mph47%30.21 "HgN/A
4:50 pm77 °FPassing clouds.7 mph47%30.21 "HgN/A
4:20 pm77 °FPassing clouds.8 mph44%30.24 "HgN/A
3:50 pm77 °FPassing clouds.6 mph44%30.24 "HgN/A
3:20 pm77 °FPassing clouds.9 mph44%30.24 "HgN/A
2:50 pm77 °FPassing clouds.6 mph47%30.24 "HgN/A
1:50 pm75 °FPassing clouds.6 mph50%30.27 "HgN/A
1:20 pm73 °FPassing clouds.5 mph53%30.27 "HgN/A
12:50 pm73 °FPassing clouds.8 mph50%30.27 "HgN/A
12:20 pm73 °FScattered clouds.9 mph53%30.27 "HgN/A
11:50 am73 °FScattered clouds.9 mph53%30.30 "HgN/A
11:20 am72 °FPassing clouds.5 mph57%30.30 "HgN/A
Weather by CustomWeather, © 2019

See weather overview